[[{"header":{"parameterUnit":"m.s-1","parameterCategory":1,"la1":30.2991,"la2":30.254,"lo1":-89.0895,"lo2":-89.0444,"dy":0.0017,"dx":0.0017,"nx":28,"ny":28,"refTime":"2024-12-16T09:00:00:Z","depth":0,"parameterNumber":2,"parameterNumberName":"U-component_of_WINDS"},"data":[0,0,0,0,0,0,0,0,0,0,0,0,0,0,0,0,0,0,0,0,0,0,0,0,0,0,0,0,0,0,0,0,0,0,0,0,0,0,0,0,0,0,0,0,0,0,0,0,0,0,0,0,0,0,0,0,0,0,-4.5767,-4.5766,0,-4.5745,-4.5745,-4.5745,-4.561,-4.5607,-4.5604,-4.5601,-4.558,-4.5582,-4.5585,0,0,0,0,0,0,0,0,0,0,0,0,0,-4.5694,-4.5696,-4.5767,-4.5766,-4.5766,-4.5745,-4.5745,-4.5745,-4.5611,-4.5607,-4.5603,-4.5599,-4.5579,-4.5582,-4.5585,0,0,0,0,0,0,0,0,0,0,0,0,0,-4.5704,-4.5696,-4.5767,-4.5697,-4.569,-4.5745,-4.5745,-4.5745,-4.5612,-4.5607,-4.5602,-4.5597,-4.5578,-4.5582,-4.5586,-4.5707,0,0,-4.5597,-4.5599,0,0,0,0,0,0,0,0,-4.5704,-4.5707,-4.5707,-4.5702,-4.5694,-4.5675,-4.5711,-4.5732,-4.5613,-4.5642,-4.5601,-4.5595,-4.5616,-4.5616,-4.5623,-4.5706,-4.5705,-4.5597,-4.56,-4.5601,-4.5602,0,0,0,0,0,0,0,-4.5703,-4.5707,-4.5758,-4.5707,-4.57,-4.5667,-4.5663,-4.5715,-4.5656,-4.5639,-4.5629,-4.5628,-4.5611,-4.562,-4.5621,-4.5704,-4.5597,-4.5601,-4.5603,-4.5604,-4.5887,-4.5892,0,0,0,0,0,0,-4.5712,-4.5708,-4.5759,-4.5757,-4.5687,-4.5672,-4.5668,-4.5686,-4.5655,-4.5646,-4.5632,-4.5622,-4.5616,-4.5617,-4.562,-4.576,-4.5601,-4.5605,-4.5607,-4.5882,-4.5888,-4.5894,0,0,0,0,0,0,-4.5711,-4.5718,-4.576,-4.573,-4.5733,-4.5679,-4.5701,-4.5689,-4.5697,-4.5651,-4.564,-4.5651,-4.5612,-4.5615,-4.5686,-4.5758,-4.5606,-4.561,-4.5875,-4.5884,-4.5891,-4.6042,0,0,0,0,0,0,-4.571,-4.5718,-4.5763,-4.5732,-4.5735,-4.5826,-4.5705,-4.5692,-4.5703,-4.569,-4.5666,-4.5657,-4.5608,-4.5681,-4.569,-4.576,-4.5613,-4.5869,-4.5879,-4.5888,-4.603,-4.6054,-4.6074,0,0,0,0,0,-4.5707,-4.5806,-4.5766,-4.5773,-4.5789,-4.583,-4.5832,-4.5773,-4.571,-4.5755,-4.5725,-4.5658,-4.5749,-4.569,-4.5698,-4.5771,-4.5864,-4.5876,-4.5888,-4.602,-4.6049,-4.6073,0,0,0,0,0,0,-4.5847,-4.5801,-4.5756,-4.5847,-4.5844,-4.5807,-4.5862,-4.5806,-4.582,-4.5807,-4.5734,-4.573,-4.5813,-4.5799,-4.5734,-4.5887,-4.5795,-4.5809,-4.5893,-4.592,-4.5941,-4.5943,-4.5616,0,0,0,0,0,-4.5889,-4.5925,-4.5883,-4.5968,-4.5968,-4.5916,-4.5932,-4.5887,-4.5881,-4.5878,-4.5854,-4.5851,-4.5879,-4.5899,-4.5922,-4.6028,-4.6021,-4.6082,-4.6104,-4.6122,-4.6135,-4.6191,-4.6218,-4.5933,-4.5932,-4.5932,0,0,-4.5974,-4.5954,-4.5981,-4.5995,-4.5987,-4.6027,-4.5916,-4.5962,-4.5991,-4.5885,-4.5951,-4.5934,-4.5926,-4.6016,-4.6054,-4.6006,-4.6213,-4.6137,-4.6152,-4.6155,-4.6206,-4.6233,-4.6257,-4.5941,-4.5939,-4.5938,0,0,-4.6151,-4.6139,-4.6209,-4.6204,-4.6193,-4.6158,-4.6176,-4.6148,-4.6133,-4.6198,-4.6119,-4.6154,-4.6203,-4.6201,-4.6206,-4.6385,-4.6324,-4.6395,-4.6509,-4.6565,-4.6588,-4.6607,-4.6671,-4.6695,-4.6408,-4.6409,-4.6409,0,-4.6259,-4.6316,-4.6252,-4.6305,-4.6314,-4.622,-4.6291,-4.6289,-4.6287,-4.6296,-4.6243,-4.6304,-4.6292,-4.638,-4.6424,-4.6432,-4.645,-4.6397,-4.6589,-4.6608,-4.6626,-4.6686,-4.6711,-4.6417,-4.6416,-4.6415,-4.6414,0,-4.645,-4.649,-4.6548,-4.6549,-4.6565,-4.6626,-4.6573,-4.6597,-4.6552,-4.6523,-4.6592,-4.6574,-4.6592,-4.661,-4.6567,-4.6693,-4.6664,-4.6602,-4.6508,-4.6663,-4.6718,-4.6741,-4.643,-4.6426,-4.6424,-4.6422,0,0,-4.6711,-4.6678,-4.67,-4.67,-4.6683,-4.6713,-4.6772,-4.679,-4.6812,-4.6815,-4.6862,-4.6907,-4.685,-4.6856,-4.6812,-4.6861,-4.7005,-4.6792,-4.6791,-4.6832,-4.7144,-4.7191,-4.7219,-4.6965,-4.6969,-4.6972,-4.7145,0,-4.6881,-4.6977,-4.6923,-4.7028,-4.7065,-4.6979,-4.703,-4.7025,-4.7001,-4.703,-4.7002,-4.7036,-4.6957,-4.696,-4.7005,-4.6978,-4.7066,-4.6965,-4.7008,-4.7011,-4.7012,-4.7248,-4.7297,-4.746,-4.7166,-4.717,-4.7172,0,-4.7091,-4.7103,-4.7212,-4.7189,-4.7203,-4.7249,-4.7262,-4.7291,-4.7285,-4.7264,-4.7273,-4.7217,-4.7274,-4.7182,-4.7259,-4.7191,-4.7206,-4.7196,-4.7201,-4.7202,-4.71,-4.7255,-4.7511,-4.7536,-4.7206,-4.7203,-4.7201,0,-4.7271,-4.7315,-4.7386,-4.7388,-4.7364,-4.7399,-4.739,-4.7379,-4.7394,-4.7407,-4.7416,-4.7435,-4.7445,-4.7461,-4.7413,-4.735,-4.7497,-4.7401,-4.7481,-4.7483,-4.7515,-4.7514,-4.7777,-4.7527,-4.7526,-4.7526,-4.7525,0,-4.7466,-4.7535,-4.7466,-4.751,-4.7586,-4.7524,-4.7602,-4.7584,-4.7576,-4.7615,-4.7542,-4.7581,-4.7514,-4.7547,-4.751,-4.758,-4.7585,-4.757,-4.7559,-4.7576,-4.7578,-4.7584,-4.7571,-4.7532,-4.7531,-4.753,-4.7528,0,-4.7679,-4.7635,-4.7707,-4.7679,-4.7673,-4.7731,-4.7707,-4.7746,-4.7718,-4.7769,-4.7777,-4.7732,-4.7767,-4.772,-4.775,-4.7725,-4.7822,-4.7794,-4.7824,-4.7815,-4.7898,-4.7891,-4.8174,-4.8208,-4.7937,-4.794,-4.7942,0,-4.7805,-4.7857,-4.7835,-4.7856,-4.7852,-4.7887,-4.7902,-4.7844,-4.7863,-4.7862,-4.7902,-4.7931,-4.795,-4.801,-4.798,-4.8003,-4.7975,-4.8073,-4.7978,-4.7994,-4.7977,-4.7974,-4.7979,-4.8092,-4.8096,-4.8098,-4.81,0,-4.8034,-4.8011,-4.8035,-4.8054,-4.8074,-4.8086,-4.8092,-4.8114,-4.8053,-4.8079,-4.8113,-4.8129,-4.816,-4.8189,-4.8205,-4.8197,-4.814,-4.8131,-4.8151,-4.8168,-4.8183,-4.8176,-4.7876,-4.8124,-4.8122,-4.812,-4.8119,-4.8118,-4.8207,-4.825,-4.8241,-4.8272,-4.8271,-4.8279,-4.8315,-4.8292,-4.8319,-4.834,-4.8305,-4.8349,-4.8344,-4.8359,-4.8358,-4.8392,-4.8349,-4.8378,-4.8385,-4.8393,-4.8406,-4.8179,-4.8395,-4.8394,-4.8393,-4.8392,-4.8392,0,-4.8432,-4.8423,-4.8452,-4.8463,-4.8488,-4.8432,-4.8437,-4.8461,-4.8501,-4.8501,-4.8522,-4.8563,-4.8592,-4.8566,-4.859,-4.8623,-4.8597,-4.8631,-4.8627,-4.8627,-4.8442,-4.8423,-4.8651,-4.8651,-4.8651,-4.8651,-4.8651,-4.8651,-4.8551,-4.8621,-4.8597,-4.8666,-4.8656,-4.8699,-4.8707,-4.8714,-4.8714,-4.8763,-4.8787,-4.877,-4.876,-4.8783,-4.8808,-4.8799,-4.8811,-4.8855,-4.8837,-4.8665,-4.864,-4.8615,-4.8596,-4.8858,-4.8858,-4.9018,-4.902,-4.9021]},{"header":{"parameterUnit":"m.s-1","parameterCategory":1,"la1":30.2991,"la2":30.254,"lo1":-89.0895,"lo2":-89.0444,"dy":0.0017,"dx":0.0017,"nx":28,"ny":28,"refTime":"2024-12-16T09:00:00:Z","depth":0,"parameterNumber":3,"parameterNumberName":"V-component_of_WINDS"},"data":[0,0,0,0,0,0,0,0,0,0,0,0,0,0,0,0,0,0,0,0,0,0,0,0,0,0,0,0,0,0,0,0,0,0,0,0,0,0,0,0,0,0,0,0,0,0,0,0,0,0,0,0,0,0,0,0,0,0,-0.0267,-0.0267,0,-0.0283,-0.0283,-0.0283,-0.0275,-0.0274,-0.0274,-0.0273,-0.0289,-0.029,-0.0291,0,0,0,0,0,0,0,0,0,0,0,0,0,-0.0228,-0.0229,-0.0267,-0.0267,-0.0268,-0.0283,-0.0283,-0.0283,-0.0275,-0.0274,-0.0274,-0.0273,-0.0289,-0.029,-0.0291,0,0,0,0,0,0,0,0,0,0,0,0,0,-0.0245,-0.0229,-0.0267,-0.0265,-0.0265,-0.0283,-0.0283,-0.0283,-0.0275,-0.0274,-0.0273,-0.0273,-0.0289,-0.029,-0.0291,-0.0312,0,0,-0.0295,-0.0296,0,0,0,0,0,0,0,0,-0.0244,-0.0246,-0.0265,-0.0265,-0.0265,-0.0276,-0.0275,-0.0293,-0.0275,-0.0271,-0.0273,-0.0273,-0.0286,-0.0287,-0.0291,-0.0313,-0.0313,-0.0295,-0.0296,-0.0297,-0.0297,0,0,0,0,0,0,0,-0.0243,-0.0245,-0.0273,-0.0266,-0.0266,-0.0263,-0.0264,-0.0278,-0.0282,-0.0271,-0.0271,-0.0273,-0.0285,-0.029,-0.0292,-0.0314,-0.0295,-0.0296,-0.0297,-0.0298,-0.0349,-0.035,0,0,0,0,0,0,-0.0242,-0.0245,-0.0273,-0.0274,-0.0253,-0.0264,-0.0266,-0.0273,-0.0282,-0.0282,-0.0273,-0.0272,-0.0288,-0.029,-0.0292,-0.0315,-0.0297,-0.0298,-0.0298,-0.0349,-0.035,-0.035,0,0,0,0,0,0,-0.0241,-0.0244,-0.0272,-0.0259,-0.0262,-0.0265,-0.0274,-0.0274,-0.0279,-0.0283,-0.0283,-0.0278,-0.0288,-0.029,-0.0306,-0.0316,-0.0298,-0.0299,-0.0348,-0.0349,-0.035,-0.0362,0,0,0,0,0,0,-0.024,-0.0244,-0.0253,-0.0259,-0.0263,-0.0287,-0.0274,-0.0275,-0.0281,-0.028,-0.0287,-0.0288,-0.0288,-0.0305,-0.0308,-0.0317,-0.03,-0.0347,-0.0348,-0.035,-0.0361,-0.0363,-0.0365,0,0,0,0,0,-0.0239,-0.0256,-0.0253,-0.0257,-0.0274,-0.0288,-0.029,-0.0289,-0.0282,-0.029,-0.0292,-0.0288,-0.0314,-0.0306,-0.031,-0.032,-0.0347,-0.0348,-0.0349,-0.036,-0.0363,-0.0365,0,0,0,0,0,0,-0.0252,-0.0257,-0.0254,-0.0274,-0.028,-0.0286,-0.0296,-0.0293,-0.0301,-0.03,-0.0298,-0.03,-0.0316,-0.0319,-0.0311,-0.0338,-0.0329,-0.0331,-0.0336,-0.0339,-0.0341,-0.034,-0.0301,0,0,0,0,0,-0.0257,-0.0268,-0.0272,-0.0289,-0.0292,-0.0294,-0.03,-0.0298,-0.0305,-0.0307,-0.0311,-0.0317,-0.0326,-0.0333,-0.0342,-0.0361,-0.0362,-0.0369,-0.0371,-0.0373,-0.0375,-0.0383,-0.0386,-0.0355,-0.0355,-0.0355,0,0,-0.0268,-0.0272,-0.0279,-0.0292,-0.0297,-0.0307,-0.0296,-0.0308,-0.0316,-0.0309,-0.0324,-0.0326,-0.0333,-0.035,-0.0358,-0.0353,-0.0384,-0.0375,-0.0377,-0.0377,-0.0385,-0.0388,-0.0391,-0.0356,-0.0356,-0.0356,0,0,-0.0293,-0.0298,-0.0312,-0.0316,-0.0323,-0.0323,-0.0326,-0.0332,-0.0333,-0.0347,-0.0342,-0.035,-0.0367,-0.0371,-0.0376,-0.0399,-0.0395,-0.0402,-0.0414,-0.0422,-0.0424,-0.0426,-0.0433,-0.0436,-0.0404,-0.0404,-0.0404,0,-0.0306,-0.0322,-0.032,-0.0332,-0.0336,-0.033,-0.0343,-0.0347,-0.0357,-0.036,-0.0354,-0.0373,-0.0377,-0.0394,-0.0399,-0.0404,-0.0406,-0.0401,-0.0424,-0.0426,-0.0428,-0.0435,-0.0437,-0.0404,-0.0404,-0.0404,-0.0404,0,-0.0337,-0.0347,-0.0358,-0.0366,-0.0372,-0.0384,-0.0383,-0.0389,-0.0386,-0.0387,-0.04,-0.0405,-0.0413,-0.0417,-0.0415,-0.0433,-0.043,-0.0424,-0.0415,-0.0432,-0.0438,-0.044,-0.0406,-0.0405,-0.0405,-0.0405,0,0,-0.0373,-0.0377,-0.0381,-0.0383,-0.0388,-0.0396,-0.0407,-0.0415,-0.0419,-0.0425,-0.0434,-0.0447,-0.0441,-0.0445,-0.0444,-0.0451,-0.0466,-0.0444,-0.0444,-0.0447,-0.0484,-0.0488,-0.0491,-0.0463,-0.0464,-0.0464,-0.0483,0,-0.0397,-0.0417,-0.0414,-0.0432,-0.0441,-0.0433,-0.0443,-0.0446,-0.0446,-0.0453,-0.0453,-0.0461,-0.0454,-0.0456,-0.0463,-0.0463,-0.0474,-0.0462,-0.047,-0.0471,-0.0469,-0.0494,-0.0499,-0.0516,-0.0485,-0.0486,-0.0486,0,-0.043,-0.0435,-0.0454,-0.0455,-0.0458,-0.0467,-0.0472,-0.0479,-0.0482,-0.0482,-0.0485,-0.0481,-0.0491,-0.0481,-0.0494,-0.0486,-0.0489,-0.0489,-0.049,-0.049,-0.0479,-0.0494,-0.0522,-0.0524,-0.049,-0.049,-0.0489,0,-0.0452,-0.0464,-0.0476,-0.0479,-0.0481,-0.0486,-0.0488,-0.049,-0.0494,-0.0498,-0.05,-0.0506,-0.0509,-0.0513,-0.0511,-0.0504,-0.0523,-0.0513,-0.0522,-0.0522,-0.0526,-0.0526,-0.0554,-0.0529,-0.0529,-0.0529,-0.0529,0,-0.048,-0.0491,-0.0486,-0.0494,-0.0506,-0.0501,-0.0513,-0.0513,-0.0515,-0.0521,-0.0515,-0.0521,-0.0517,-0.0523,-0.0521,-0.053,-0.0532,-0.0531,-0.053,-0.0531,-0.0531,-0.0533,-0.0532,-0.053,-0.053,-0.053,-0.053,0,-0.0507,-0.0504,-0.0517,-0.0517,-0.0517,-0.0526,-0.0525,-0.0532,-0.053,-0.0538,-0.054,-0.0538,-0.0544,-0.0541,-0.0548,-0.0546,-0.0558,-0.0556,-0.0557,-0.0556,-0.0564,-0.0563,-0.0594,-0.0597,-0.0571,-0.0571,-0.0572,0,-0.0525,-0.0533,-0.0533,-0.0537,-0.0538,-0.0544,-0.0547,-0.0543,-0.0546,-0.0549,-0.0554,-0.0559,-0.0563,-0.0573,-0.0572,-0.0576,-0.0573,-0.0584,-0.0574,-0.0574,-0.0572,-0.0571,-0.0572,-0.0586,-0.0586,-0.0586,-0.0587,0,-0.0556,-0.0553,-0.0558,-0.0562,-0.0566,-0.0568,-0.0571,-0.0574,-0.0569,-0.0573,-0.0578,-0.0581,-0.0587,-0.0591,-0.0595,-0.0595,-0.059,-0.0589,-0.0591,-0.0593,-0.0592,-0.0591,-0.0561,-0.0589,-0.0589,-0.0589,-0.0588,-0.0588,-0.0578,-0.0584,-0.0585,-0.059,-0.059,-0.0592,-0.0597,-0.0595,-0.06,-0.0603,-0.06,-0.0606,-0.0606,-0.061,-0.061,-0.0615,-0.061,-0.0614,-0.0614,-0.0615,-0.0616,-0.0592,-0.0615,-0.0615,-0.0615,-0.0615,-0.0615,0,-0.0608,-0.0607,-0.0611,-0.0614,-0.0617,-0.0611,-0.0612,-0.0615,-0.062,-0.0621,-0.0624,-0.0629,-0.0633,-0.0631,-0.0634,-0.0637,-0.0635,-0.0638,-0.0638,-0.0638,-0.062,-0.0617,-0.064,-0.064,-0.064,-0.064,-0.064,-0.064,-0.0624,-0.0633,-0.063,-0.0639,-0.0638,-0.0643,-0.0644,-0.0645,-0.0645,-0.0651,-0.0653,-0.0652,-0.065,-0.0653,-0.0655,-0.0655,-0.0656,-0.066,-0.0658,-0.0642,-0.0639,-0.0637,-0.0634,-0.066,-0.066,-0.0675,-0.0675,-0.0676]}]]